RH
24 22 20 19 18 17 16 15 15 14 13 12 11 12 15 13 14 15 16 19 17 16 12 11 11 14 18 26 28 35 45 38 36 33 30 30 32 32 31 27 24 20 23 22 24
24 22 21 19 17 16 14 13 13 12 12 12 12 11 13 14 17 15 16 15 14 11 10 10 10 10 11 16 34 39 42 33 28 26 30 32 36 36 35 32 28 25 23 22 22
23 21 19 18 16 14 13 13 12 12 12 12 12 13 14 17 19 17 14 13 11 9 8 10 10 10 10 11 14 27 43 36 36 38 41 39 43 45 44 36 35 38 31 28 25
23 20 18 17 15 14 13 13 13 12 12 12 13 13 15 23 20 13 12 10 11 10 11 11 10 11 11 11 12 16 21 28 27 35 39 43 48 48 49 44 41 39 36 36 32
22 20 18 17 16 15 14 14 13 13 13 14 15 16 20 14 14 11 10 10 10 10 10 12 12 12 11 11 11 12 13 14 17 25 30 36 40 43 46 47 47 44 42 38 38
22 20 18 17 16 15 15 14 14 14 14 14 15 15 15 14 11 12 11 10 9 10 10 10 11 11 13 16 15 15 15 15 16 16 19 27 30 42 41 40 45 52 45 40 39
22 21 19 17 17 16 15 15 15 15 15 15 17 21 14 13 13 12 11 10 11 11 10 10 11 13 15 16 16 17 21 23 25 20 20 28 31 30 28 39 44 48 57 49 41
22 21 19 18 17 15 15 15 16 15 15 16 15 16 14 13 12 12 10 9 9 10 11 12 13 17 21 22 24 26 26 32 25 36 41 39 41 34 35 39 38 45 53 58 45
22 21 20 19 17 15 15 16 16 15 16 14 15 15 14 13 11 12 10 11 11 12 13 13 16 22 28 29 31 30 37 35 30 39 40 44 44 32 33 34 43 41 42 46 46
22 22 20 19 17 16 16 16 16 18 16 17 13 15 13 13 14 12 10 11 13 15 16 18 22 29 27 32 47 39 43 44 51 46 51 51 49 37 35 28 34 37 37 36 44
23 22 21 20 18 17 18 19 22 23 17 16 16 15 14 14 14 13 12 13 16 19 22 22 31 35 31 36 43 52 58 62 53 60 69 64 69 53 43 41 38 31 31 35 37
23 23 22 20 19 19 19 20 22 21 22 18 17 16 14 15 18 15 14 15 21 26 27 30 39 33 40 45 50 59 65 62 56 64 70 65 53 51 48 44 42 40 26 31 37
24 24 23 21 22 23 22 22 22 23 28 21 19 17 16 17 20 18 16 18 23 28 34 42 43 41 45 50 58 64 71 71 78 68 70 68 62 62 61 61 60 47 30 27 38
25 25 24 22 24 23 22 23 24 24 34 25 18 18 18 15 19 19 19 23 26 32 36 43 46 49 52 59 65 73 70 74 75 77 84 76 78 62 77 84 74 68 46 25 30
28 26 24 22 24 23 23 25 25 32 53 23 19 19 17 17 19 18 22 26 27 31 46 49 50 55 57 64 69 75 70 61 68 75 76 70 95 91 79 83 82 66 49 42 46
29 27 25 24 27 24 25 27 31 46 40 20 19 19 20 17 19 22 28 28 29 29 42 50 51 56 64 69 72 71 67 55 59 69 89 85 92 93 83 85 78 74 58 44 44
31 29 27 25 26 25 26 33 45 36 21 25 23 24 23 21 21 26 31 39 43 48 43 48 57 62 67 69 69 79 77 74 72 80 83 75 80 93 92 85 82 73 70 55 44
33 31 29 27 26 26 32 36 39 27 30 24 25 25 21 27 28 31 36 44 44 49 61 64 70 66 70 79 90 88 89 98 98 80 75 68 97 97 87 84 81 80 84 68 53
35 33 32 28 28 31 35 42 36 33 31 31 29 25 23 26 30 34 43 52 54 51 69 75 66 64 73 76 86 89 93 79 97 83 92 76 84 94 81 69 78 81 89 64 61
38 38 34 31 32 34 38 39 39 33 30 30 38 32 39 36 35 40 48 53 60 52 51 63 77 63 69 76 94 85 85 90 90 98 91 61 83 96 84 83 86 91 87 65 61
40 42 33 34 34 36 45 41 38 36 34 32 33 41 38 40 38 40 48 53 57 53 48 57 76 66 72 79 95 93 96 94 91 94 98 95 84 96 95 97 97 89 75 69 67
44 45 35 36 39 38 40 38 36 37 35 32 36 40 44 41 40 39 46 52 55 55 55 56 78 82 73 89 96 94 98 98 97 95 95 91 87 86 98 98 98 91 80 78 87
47 43 39 36 45 42 42 37 36 34 32 34 33 32 32 37 44 35 42 49 54 53 56 60 75 80 74 88 90 97 96 95 94 98 97 98 90 91 97 97 97 89 95 89 90
50 53 44 44 42 49 48 35 37 35 33 33 30 34 35 28 33 36 42 47 48 50 49 52 66 86 97 96 95 98 97 95 98 98 96 94 96 94 94 97 92 84 86 98 86
52 49 46 49 45 46 45 43 40 34 31 31 32 33 35 43 34 35 40 43 44 49 48 53 65 68 75 85 95 97 97 97 98 98 98 94 98 91 97 98 88 97 94 92 80
54 54 49 47 46 51 50 43 37 35 34 31 31 32 33 36 41 43 42 45 47 46 50 49 62 60 76 84 93 96 90 95 97 98 97 95 94 97 96 97 90 96 90 92 97
50 49 56 50 51 53 46 41 38 34 34 32 33 34 32 33 33 33 38 40 46 52 56 52 56 61 75 74 78 95 94 95 97 98 96 91 97 97 96 97 95 86 87 95 95